Location: Roanoke
(37.2710°N, 79.9420°W)
Time: 16:28:46
(UTC-05:00)

Transit 2A - Pass Details

Date: 29 November 2019
Orbit: 602 x 957 km, 66.7° (Epoch: 10 December)

Event Time Altitude Azimuth Distance (km) Brightness Sun altitude
Rises 09:34:40 0° 205° (SSW) 3,225 9.6 21.0°
Reaches altitude 10° 09:37:09 10° 205° (SSW) 2,245 8.9 21.3°
Maximum altitude 09:42:14 87° 118° (ESE) 695 6.3 21.9°
Drops below altitude 10° 09:46:53 10° 28° (NNE) 2,055 8.1 22.5°
Sets 09:49:05 0° 29° (NNE) 2,932 8.8 22.7°
